Regional Weather Roundup
Issued by NWS

Home | Current Version | Previous Version | Graphics & Text | Print | Product List | Glossary On
Versions: 1 2 3 4 5 6 7 8 9 10 11 12 13 14 15 16 17 18 19 20 21 22 23 24 25 26 27 28 29 30 31 32 33 34 35 36 37 38 39 40 41 42 43 44 45 46 47 48 49 50
000
ASUS43 KLSX 220607
RWRMO

WEATHER SUMMARY FOR MISSOURI
NATIONAL WEATHER SERVICE SPRINGFIELD MO
100 AM CDT SUN APR 22 2018

NOTE: "FAIR" INDICATES FEW OR NO CLOUDS BELOW 12,000 FEET WITH NO
       SIGNIFICANT WEATHER AND/OR OBSTRUCTIONS TO VISIBILITY.
       CURRENT SKY AND/OR WEATHER CONDITIONS ARE NOT AVAILABLE FOR
       CHILLICOTHE AND FARMINGTON.

MOZ001>031-035>038-043-044-053-054-220700-
...NORTHERN AND WESTERN MISSOURI...

CITY           SKY/WX    TMP DP  RH WIND       PRES   REMARKS
KANSAS CTY INT CLOUDY    53  30  41 NE13      30.13F
6HR MIN TEMP:  53; 6HR MAX TEMP:  61;

KANSAS C DTWN  CLOUDY    57  28  33 NE8       30.12F
6HR MIN TEMP:  57; 6HR MAX TEMP:  65;

LEE`S SUMMIT   CLOUDY    55  31  39 NE9       30.13S
6HR MIN TEMP:  55; 6HR MAX TEMP:  63;

ST JOSEPH      CLOUDY    54  30  40 NE13      30.16F
6HR MIN TEMP:  54; 6HR MAX TEMP:  60;

CHILLICOTHE      N/A     54  30  40 NE8       30.18F
6HR MIN TEMP:  54; 6HR MAX TEMP:  59;

KIRKSVILLE     CLOUDY    52  31  44 E12       30.20F
6HR MIN TEMP:  51; 6HR MAX TEMP:  57;


$$
MOZ066>068-077>081-088>096-101>105-220700-
...SOUTHWEST MISSOURI...

CITY           SKY/WX    TMP DP  RH WIND       PRES   REMARKS
SPRINGFIELD    CLOUDY    55  47  74 NE9       30.03F
6HR MIN TEMP:  54; 6HR MAX TEMP:  64; 6HR PCP:  0.07;

JOPLIN         CLOUDY    52  51  97 N3        30.04F
6HR MIN TEMP:  52; 6HR MAX TEMP:  54; 6HR PCP:  0.11;

BRANSON        CLOUDY    54  46  76 E7        30.03F

$$
MOZ032>034-039>042-045>050-055>058-069>072-220700-
...CENTRAL MISSOURI...

CITY           SKY/WX    TMP DP  RH WIND       PRES   REMARKS
COLUMBIA       CLOUDY    57  32  38 E12       30.13S
6HR MIN TEMP:  57; 6HR MAX TEMP:  62;

JEFFERSON CITY CLOUDY    59  32  36 E6        30.13S
6HR MIN TEMP:  59; 6HR MAX TEMP:  65;

ROLLA          CLOUDY    57  33  40 E12       30.12S
6HR MIN TEMP:  57; 6HR MAX TEMP:  63;

SEDALIA        CLOUDY    57  36  45 E7        30.13F
6HR MIN TEMP:  57; 6HR MAX TEMP:  63;

WHITEMAN AFB   CLOUDY    55  34  46 NE6       30.07F
WARRENSBURG    CLOUDY    54  32  43 N7        30.12R
OSAGE BEACH    CLOUDY    59  37  44 NE10      30.10F

$$
MOZ051-052-059>065-220700-
...EAST CENTRAL MISSOURI...

CITY           SKY/WX    TMP DP  RH WIND       PRES   REMARKS
ST LOUIS INTL  CLOUDY    57  33  40 E13       30.18F
6HR MIN TEMP:  57; 6HR MAX TEMP:  63;

SPIRIT OF STL  CLOUDY    57  35  43 E10       30.16F
6HR MIN TEMP:  57; 6HR MAX TEMP:  64;

ST CHARLES     CLOUDY    56  34  43 E12       30.17F
6HR MIN TEMP:  56; 6HR MAX TEMP:  63;


$$
MOZ072>076-082>087-097>100-106>115-220700-
...SOUTH CENTRAL AND SOUTHEAST MISSOURI...

CITY           SKY/WX    TMP DP  RH WIND       PRES   REMARKS
CAPE GIRARDEAU FAIR      64  37  36 E14       30.13S
6HR MIN TEMP:  63; 6HR MAX TEMP:  68;

FARMINGTON     CLOUDY    58  36  43 E8        30.13F
6HR MIN TEMP:  57; 6HR MAX TEMP:  63;

POPLAR BLUFF   CLOUDY    61  46  57 NE3       30.11R
6HR MIN TEMP:  61; 6HR MAX TEMP:  68; 6HR PCP: TRACE;

WEST PLAINS    CLOUDY    60  36  40 E8        30.08F
6HR MIN TEMP:  60; 6HR MAX TEMP:  65;


$$



USA.gov is the U.S. government's official web portal to all federal, state and local government web resources and services.